Vertical_Velocity
-0 -0 -1 -1 -2 -1 -1 -2 1 1 3 4 2 -1 -1 -3 -1 -1 -2 -1 -2 0 0 -0 -0 1 3 -0 7 8 1 3 2 -1 3 1 -3 5 1 0 4 -0 -1 4 2 -3 -2
-1 0 0 1 1 -0 -2 -1 -2 -2 -1 1 2 1 -1 -0 -0 2 1 -1 -0 -1 -0 0 0 0 2 -3 -6 1 2 3 -0 3 -0 4 3 7 0 -1 3 9 0 -0 -1 -1 1
-0 -1 -3 -2 -2 0 -1 -2 -3 -4 -3 -2 -3 -1 -2 -2 -0 -0 -2 -2 -1 -1 -1 -0 -2 -2 0 12 8 7 2 -1 2 3 3 3 2 2 5 5 4 1 -5 2 -7 0 -2
-1 -1 -2 -2 1 1 0 -0 -0 1 -2 -3 -2 -4 -0 -2 -1 -1 -3 -2 -2 -2 -1 0 1 0 2 1 -1 1 6 8 6 2 -1 2 3 3 2 8 2 1 5 -1 3 -1 9
-3 -1 -0 -1 -1 -0 -1 -3 -3 -2 -1 -4 -4 -4 -4 -4 -3 -1 -3 -1 -1 -2 1 -1 -1 -1 -4 -1 1 0 -0 5 4 5 10 5 1 3 -1 1 3 2 -2 9 8 -6 4
2 -0 -1 0 0 -1 -1 -1 -2 -1 -2 -1 -2 -3 -4 -3 -3 -3 -0 -1 -1 -4 -3 -1 -1 2 1 -1 -2 -2 -0 -2 -0 5 0 4 5 4 -1 4 -14 -5 11 5 -8 4 2
2 1 1 1 2 0 -1 -2 -1 -1 -2 -1 -1 -1 -2 -4 -3 -2 -0 -0 -2 -10 2 -0 -0 -1 -3 0 5 3 6 -2 -4 -1 -0 7 1 -11 2 0 -2 -2 2 -3 -2 15 -4
-0 0 -0 -1 -1 -1 -1 -1 -2 -2 -3 -8 -7 -1 -2 -4 -2 -3 -3 -4 2 -2 -13 -1 3 3 1 2 2 3 7 1 3 -2 6 6 -21 13 1 5 3 5 2 -5 -1 7 2
-2 -2 -2 -2 -2 -0 0 -2 -1 -1 -3 -3 -5 -2 -3 -3 -1 -1 -1 -4 -6 -4 -4 -2 1 0 3 5 4 1 1 1 2 2 2 2 4 5 1 2 1 -0 0 3 9 12 -5
-1 1 1 1 1 1 2 1 -1 0 -4 -3 -3 -1 -3 -1 -1 -3 -3 -1 2 -1 -0 0 -4 -3 -2 4 -0 -0 1 6 1 3 5 -2 7 1 4 2 5 3 1 -2 -0 0 1
-3 -4 -2 -4 -5 -4 -3 -3 -4 -1 -2 0 -0 0 1 -3 -0 -2 -3 -1 -1 -1 3 -0 -2 -1 2 -1 -3 -0 -3 -2 1 2 1 1 1 2 3 6 3 2 2 -0 -1 -2 7
-1 -1 -2 -1 -2 -3 -2 -3 -4 -6 -5 -3 -4 -2 -3 -0 1 -2 -3 -0 -1 1 -3 -4 -2 -2 1 0 -1 -1 -1 2 2 2 0 2 2 -2 -4 2 3 1 -1 -1 1 -0 5
-2 -1 -0 -2 -2 -3 -2 -2 -4 -3 -1 3 -1 -2 -2 -2 0 0 1 -3 -4 3 -1 1 1 -2 0 -0 -2 1 0 2 -1 2 1 -0 -0 2 1 1 -4 -2 -1 2 8 8 -2
1 2 -0 -0 -0 -1 -2 -5 -3 -2 -4 2 5 3 2 -1 -1 -1 -2 -6 5 3 0 1 1 2 0 -0 0 1 3 1 -0 4 -1 2 1 3 -2 -2 1 1 4 6 1 3 3
0 0 -0 0 -1 -2 -2 -2 -2 -0 2 -0 -1 3 2 0 -4 -5 2 2 6 -0 1 -0 -3 3 9 -1 3 -0 -0 1 0 3 0 2 3 1 -1 -2 -0 4 5 2 -0 -4 8
-2 -4 -2 -2 -3 -2 -3 -4 -4 -5 -4 -8 -4 -3 -6 -4 -4 -2 1 6 6 5 -0 3 -1 3 2 14 -6 7 -2 -1 -0 2 2 0 -0 -0 -2 2 1 1 -1 4 0 1 -0
-3 -3 -4 -2 -3 -3 -3 -4 -4 -6 -4 -2 -4 -5 -2 -7 -5 -5 10 2 -0 1 -1 -1 -3 -3 2 8 -6 -3 -5 -0 2 -1 -0 -2 -0 5 -3 1 16 3 1 -6 -3 2 3
0 -2 -1 -1 -3 -6 -4 -1 -0 -2 -5 -1 -4 -5 -4 1 -12 -0 3 1 -2 1 1 -1 -3 2 3 2 0 5 2 7 0 2 5 -2 0 -5 4 -3 -5 -4 -2 -2 8 -4 5
-1 -0 1 -1 -2 -2 -1 1 2 1 -5 -9 -5 -3 -0 -5 4 -5 -12 -6 1 0 -1 -1 -3 1 2 -4 -5 6 2 3 -1 4 8 9 8 -1 1 -3 -1 0 -4 -2 -1 -1 -6
-3 -3 -1 0 -1 -3 -2 -5 -7 -1 0 1 -5 -5 3 -3 -7 -8 -6 -4 -7 -5 -7 0 -2 0 2 -0 3 2 1 -3 -0 4 5 5 -0 -2 -1 -2 17 6 3 7 12 5 -6
-1 -2 -1 3 -6 -2 0 -2 0 0 -0 4 6 -1 3 -11 -3 2 1 -5 -6 0 -8 -3 -8 2 6 -5 -5 -4 2 -7 -7 -1 -2 -1 -7 4 -3 -4 1 -5 -6 1 3 -9 13
-3 -5 -4 -3 -3 4 2 12 -13 2 -6 -1 7 5 -6 -3 -0 1 8 -3 -3 0 -3 -11 3 -1 2 -3 3 -6 6 4 -6 -6 1 4 -6 -1 -4 -5 -3 -2 -4 -2 2 -3 -2
0 -1 -0 2 -2 1 -2 -5 0 2 5 2 3 3 7 20 -6 5 -10 2 1 -1 -4 -6 -2 -3 -2 1 9 -2 -3 -0 -1 0 5 2 2 5 -9 10 -6 -4 -2 -1 -1 2 2
2 2 1 2 1 -3 -2 -0 1 1 5 7 2 3 5 -10 25 6 -2 6 0 3 3 -0 -1 3 2 2 -7 -2 -4 -3 7 -0 7 3 -0 13 -5 -2 5 4 0 1 -1 0 -1
-3 -0 1 4 4 7 3 -1 -0 0 1 2 12 9 12 -9 -0 16 -3 14 17 7 -4 -8 4 2 -6 -3 -3 -5 -5 2 0 1 3 -0 6 5 0 5 -13 -13 -2 1 1 -2 -1
-1 2 5 -5 -7 -1 4 1 -0 1 1 1 5 8 22 16 -8 16 2 -3 -5 5 -5 -5 0 7 -1 -4 1 0 -2 -2 9 -4 -1 -0 0 7 9 3 1 9 -2 -3 -4 6 4
-1 -5 -1 -1 -4 -1 -1 0 0 3 2 4 2 5 7 2 -8 1 7 11 16 0 -7 0 -1 1 -3 -2 1 5 0 -4 2 3 -1 6 5 -7 -4 3 -5 -4 -4 -2 2 2 -3
-0 -1 1 2 1 1 3 1 1 1 6 12 4 6 8 0 -3 5 1 8 -1 2 1 15 0 -2 1 1 -0 2 -1 5 -4 1 1 1 2 2 2 2 -2 1 -1 -1 -2 -4 -2
9 6 3 7 2 1 1 2 2 0 5 14 2 4 1 2 27 24 9 -3 -0 3 -1 2 3 2 1 -0 -3 0 -1 -4 -6 -0 -5 -5 -5 9 -3 13 4 0 1 1 -1 -1 -1
Height
3160 3157 3155 3151 3148 3144 3140 3136 3131 3127 3123 3117 3112 3106 3100 3095 3089 3084 3079 3074 3070 3066 3063 3060 3058 3056 3055 3055 3055 3055 3055 3056 3057 3057 3056 3056 3056 3057 3056 3056 3057 3053 3053 3054 3054 3054 3054
3160 3157 3153 3150 3146 3143 3138 3134 3129 3125 3120 3115 3110 3105 3098 3092 3086 3080 3074 3068 3064 3059 3055 3052 3050 3047 3046 3046 3045 3045 3045 3046 3045 3047 3048 3049 3050 3051 3049 3050 3050 3049 3047 3046 3046 3048 3047
3159 3156 3152 3149 3145 3141 3137 3132 3127 3122 3117 3111 3106 3100 3094 3088 3081 3075 3069 3064 3059 3054 3050 3047 3043 3039 3037 3040 3038 3038 3038 3038 3038 3038 3039 3041 3042 3043 3043 3044 3042 3040 3040 3041 3039 3042 3039
3158 3155 3151 3147 3142 3137 3133 3129 3123 3118 3112 3106 3099 3094 3087 3082 3075 3069 3063 3058 3053 3049 3044 3040 3036 3033 3028 3030 3028 3029 3029 3029 3030 3031 3032 3033 3034 3035 3036 3038 3036 3037 3036 3034 3036 3034 3034
3157 3154 3149 3143 3138 3134 3129 3124 3119 3113 3107 3100 3093 3087 3080 3075 3069 3063 3057 3052 3047 3042 3037 3033 3030 3027 3023 3021 3021 3021 3022 3022 3022 3024 3024 3026 3027 3028 3030 3032 3033 3033 3029 3029 3031 3028 3028
3156 3151 3145 3141 3136 3131 3126 3120 3115 3110 3103 3096 3089 3081 3073 3068 3062 3056 3050 3045 3040 3036 3032 3028 3024 3025 3021 3018 3017 3016 3016 3016 3018 3019 3020 3022 3021 3021 3022 3025 3022 3025 3025 3024 3024 3023 3021
3152 3148 3143 3139 3134 3128 3123 3118 3111 3105 3099 3093 3085 3077 3067 3060 3054 3049 3045 3040 3038 3031 3028 3025 3021 3018 3015 3014 3013 3012 3012 3013 3015 3016 3018 3019 3019 3014 3017 3018 3018 3019 3019 3019 3020 3022 3017
3150 3146 3142 3137 3131 3125 3119 3113 3107 3099 3092 3085 3079 3070 3062 3054 3048 3043 3039 3035 3032 3028 3022 3019 3015 3012 3010 3009 3008 3007 3008 3009 3011 3009 3014 3016 3009 3009 3011 3013 3012 3013 3012 3013 3014 3015 3011
3149 3144 3138 3133 3127 3122 3116 3109 3103 3094 3086 3078 3070 3065 3058 3050 3045 3040 3036 3033 3028 3023 3017 3012 3010 3010 3010 3008 3005 3005 3005 3004 3005 3005 3007 3007 3008 3004 3003 3005 3006 3007 3008 3010 3011 3009 3005
3144 3139 3135 3129 3124 3118 3112 3106 3098 3090 3082 3073 3065 3059 3054 3048 3045 3038 3034 3029 3025 3020 3013 3009 3009 3010 3009 3007 3006 3005 3004 3006 3003 3003 3006 3004 3003 3001 3002 3002 3003 3003 3002 3003 3004 3005 3005
3141 3136 3131 3126 3120 3115 3108 3101 3094 3087 3078 3069 3062 3056 3051 3045 3041 3036 3032 3027 3024 3021 3017 3010 3007 3007 3007 3007 3007 3004 3004 3004 3001 3002 3003 2999 2997 2997 2997 2999 2999 2998 2998 2998 2999 3000 3001
3137 3133 3128 3122 3116 3110 3104 3097 3092 3085 3076 3067 3060 3055 3049 3045 3040 3035 3031 3027 3023 3020 3012 3008 3006 3005 3006 3003 3003 3001 3000 2999 2997 2996 2994 2995 2993 2993 2993 2994 2994 2993 2995 2995 2994 2996 2995
3133 3128 3123 3117 3110 3103 3097 3092 3085 3079 3072 3065 3059 3053 3047 3042 3038 3033 3029 3026 3024 3018 3010 3007 3004 3002 3002 2999 2997 2995 2993 2993 2994 2994 2991 2990 2986 2986 2988 2990 2991 2991 2994 2991 2991 2992 2981
3127 3122 3116 3111 3104 3097 3089 3082 3078 3072 3066 3060 3054 3048 3044 3039 3036 3031 3026 3025 3022 3012 3008 3004 3000 2998 2995 2992 2992 2990 2990 2991 2989 2989 2988 2986 2982 2981 2982 2986 2988 2988 2991 2986 2977 2971 2973
3124 3118 3112 3105 3098 3091 3083 3075 3068 3064 3059 3053 3049 3046 3040 3035 3031 3028 3025 3020 3014 3008 3007 3002 2998 2994 2994 2990 2991 2988 2987 2988 2985 2984 2986 2982 2981 2979 2981 2983 2986 2985 2985 2984 2981 2978 2978
3118 3112 3105 3099 3091 3084 3077 3069 3062 3057 3053 3047 3041 3038 3036 3030 3026 3022 3019 3015 3010 3006 3003 3000 3000 2996 2993 2991 2990 2989 2985 2981 2980 2980 2980 2979 2979 2977 2978 2979 2980 2980 2981 2982 2981 2977 2969
3112 3106 3099 3092 3085 3077 3070 3064 3057 3050 3045 3041 3034 3029 3027 3023 3018 3015 3014 3010 3005 3002 2999 2999 2997 2994 2992 2989 2986 2987 2984 2980 2978 2977 2978 2977 2978 2977 2976 2975 2976 2978 2978 2979 2979 2976 2968
3105 3099 3092 3085 3077 3070 3064 3058 3051 3044 3036 3031 3026 3021 3020 3015 3015 3011 3009 3004 3000 2997 2995 2993 2990 2989 2986 2985 2983 2983 2981 2977 2975 2975 2975 2974 2973 2973 2974 2971 2972 2972 2973 2973 2974 2971 2969
3099 3092 3085 3077 3070 3064 3058 3051 3045 3039 3031 3022 3017 3012 3010 3009 3008 3008 3005 3003 2997 2994 2991 2989 2987 2984 2983 2983 2983 2977 2977 2974 2973 2972 2970 2971 2971 2971 2968 2970 2967 2967 2968 2970 2971 2970 2967
3091 3084 3076 3069 3062 3056 3050 3043 3037 3034 3027 3020 3015 3009 3009 3003 3003 3000 2997 2995 2993 2990 2987 2985 2983 2981 2979 2978 2979 2973 2972 2970 2969 2968 2968 2967 2967 2968 2967 2963 2965 2966 2966 2968 2968 2966 2964
3081 3074 3067 3060 3054 3047 3041 3035 3029 3024 3019 3015 3011 3007 3003 3002 3001 2996 2992 2990 2988 2987 2984 2982 2980 2979 2975 2973 2972 2969 2969 2967 2966 2964 2964 2964 2962 2963 2962 2962 2961 2960 2960 2960 2961 2960 2961
3072 3066 3059 3051 3043 3037 3031 3024 3020 3017 3010 3006 3006 3003 2995 2989 2990 2989 2986 2983 2982 2981 2979 2977 2976 2974 2972 2969 2969 2965 2964 2963 2962 2961 2961 2960 2958 2958 2957 2957 2957 2955 2953 2953 2953 2954 2954
3063 3056 3048 3041 3033 3026 3020 3016 3012 3008 3004 2997 2994 2993 2991 2984 2981 2981 2982 2979 2975 2974 2972 2971 2970 2968 2966 2964 2963 2960 2958 2956 2956 2956 2957 2957 2956 2955 2953 2953 2953 2951 2944 2947 2949 2949 2950
3053 3045 3037 3030 3023 3017 3012 3006 3002 2999 2997 2993 2987 2987 2984 2975 2977 2972 2971 2972 2970 2968 2967 2964 2963 2962 2960 2957 2955 2952 2950 2947 2946 2946 2949 2949 2952 2953 2950 2951 2948 2944 2943 2944 2945 2946 2946
3043 3036 3029 3022 3015 3009 3001 2997 2994 2990 2989 2985 2983 2980 2976 2968 2970 2968 2965 2962 2962 2961 2960 2958 2957 2956 2954 2953 2950 2947 2945 2942 2940 2939 2940 2943 2948 2949 2949 2945 2943 2941 2941 2943 2943 2945 2943
3035 3027 3020 3013 3007 3003 2998 2992 2988 2985 2982 2979 2977 2973 2970 2964 2963 2961 2959 2958 2958 2956 2955 2953 2952 2950 2949 2949 2949 2946 2944 2942 2941 2939 2939 2940 2943 2947 2946 2946 2941 2939 2939 2940 2940 2940 2940
3025 3019 3013 3006 3000 2995 2991 2987 2983 2979 2976 2973 2970 2967 2964 2959 2956 2955 2953 2952 2951 2950 2949 2948 2947 2946 2945 2945 2945 2944 2942 2941 2940 2939 2940 2940 2942 2944 2944 2942 2940 2937 2938 2938 2940 2943 2937
3017 3010 3003 2997 2992 2987 2982 2979 2975 2973 2970 2967 2964 2961 2959 2954 2951 2949 2948 2948 2946 2946 2945 2945 2944 2940 2942 2943 2942 2941 2940 2939 2939 2939 2940 2941 2941 2940 2941 2940 2938 2935 2935 2938 2938 2936 2935
3007 3000 2995 2987 2981 2976 2972 2969 2967 2965 2963 2960 2957 2956 2953 2949 2945 2943 2942 2942 2942 2942 2942 2941 2941 2940 2940 2940 2940 2940 2939 2938 2939 2939 2938 2939 2938 2937 2938 2936 2933 2932 2932 2931 2930 2930 2929